CAPE
0 0 2 5 6 10 13 13 11 13 15 15 6 1 8 10 7 0 0 0 0 0 0 0 0 0 0 0 0 0 0 0 0 0 0 0 0 0 4 1 0 0 0 0 0 1 1 0 0 0 2 0 1 1
0 0 0 3 4 5 8 10 12 6 14 14 6 0 4 6 10 0 0 0 0 3 0 0 0 0 3 0 0 0 0 0 0 0 0 0 0 0 0 0 0 0 0 0 0 0 0 0 2 3 3 2 0 1
0 0 0 0 3 5 7 8 8 11 13 11 5 0 2 2 0 0 0 0 0 0 0 0 0 0 0 0 0 0 0 0 0 1 3 0 0 0 0 0 0 0 0 0 0 0 0 0 0 0 1 2 0 0
0 0 0 0 0 3 5 7 7 7 11 13 4 0 1 2 0 0 0 0 0 0 0 0 0 0 0 0 0 0 0 0 0 3 2 0 0 0 0 0 0 0 0 0 0 0 0 0 0 0 0 0 0 0
0 0 0 0 0 1 4 6 5 5 11 11 2 0 0 0 0 0 0 0 0 0 0 0 0 0 0 0 0 0 0 0 0 0 0 0 0 0 0 0 0 0 0 0 0 0 0 0 0 0 0 2 3 4
0 0 0 0 0 1 1 5 4 5 7 10 0 0 0 1 0 0 0 0 0 0 0 0 0 0 0 0 0 0 0 0 0 0 0 0 0 0 0 0 0 0 0 0 0 0 0 0 0 0 0 1 1 6
0 0 0 0 0 1 1 4 4 4 6 8 0 0 0 0 0 0 0 0 0 0 0 0 0 0 0 0 0 0 0 0 0 0 0 0 0 0 0 0 0 0 0 0 0 0 0 0 0 0 1 0 3 0
0 1 0 0 0 1 1 5 5 4 5 3 0 0 0 0 0 0 0 0 0 0 0 0 0 0 0 0 0 0 0 0 0 0 0 0 0 0 0 0 0 0 0 0 0 0 0 0 0 0 0 0 0 0
0 2 1 0 1 1 2 5 6 6 3 0 0 0 0 0 0 0 0 0 0 0 0 0 0 0 0 0 0 0 0 0 0 0 0 0 0 0 0 0 0 0 0 0 0 0 0 0 0 0 0 0 0 0
0 1 0 0 1 2 3 5 4 10 0 0 0 0 0 0 0 0 0 0 0 0 0 0 0 0 0 0 0 0 0 0 0 0 0 0 0 0 0 0 0 0 0 0 0 0 0 0 0 0 0 0 0 0
0 0 0 0 0 1 3 7 10 0 0 0 0 0 0 0 0 0 0 0 0 0 0 0 0 0 0 0 0 0 0 0 0 0 0 0 0 0 0 0 0 0 0 0 0 0 0 0 0 0 0 0 0 0
1 1 1 1 0 1 4 9 13 0 0 0 0 0 0 0 0 0 0 0 0 0 0 0 0 0 0 0 0 0 0 0 0 0 0 0 0 0 0 0 0 0 0 0 0 0 0 0 0 0 0 0 0 0
2 1 4 4 0 1 4 12 10 0 0 0 0 0 0 0 0 0 0 0 0 0 0 0 0 0 0 0 0 0 0 0 0 0 0 0 0 0 0 0 0 0 0 0 0 0 0 0 0 0 0 0 0 0
3 3 4 2 3 4 10 15 0 0 0 0 0 0 0 0 0 0 0 0 0 0 0 0 0 0 0 0 0 0 0 0 0 0 0 0 0 0 0 0 0 0 0 0 0 0 0 0 0 0 0 0 0 0
3 3 4 6 5 10 9 12 1 0 0 0 0 0 0 0 0 0 0 0 0 0 0 0 0 0 0 0 0 0 0 0 0 0 0 0 0 0 0 0 0 0 0 0 0 0 0 0 0 0 0 0 0 0
5 10 1 2 3 8 6 1 0 0 0 0 0 0 0 0 0 0 0 0 0 0 0 0 0 0 0 0 0 0 0 0 0 0 0 0 0 0 0 0 0 0 0 0 0 0 0 0 0 0 0 0 0 0
9 0 0 4 1 1 3 0 0 0 0 0 0 0 0 0 0 0 0 0 0 0 0 0 0 0 0 0 0 0 0 0 0 0 0 0 0 0 0 0 0 0 0 0 0 0 0 0 0 0 0 0 0 0
11 0 1 2 0 1 0 0 0 0 0 0 0 0 0 0 0 0 0 0 0 0 0 0 0 0 0 0 0 0 0 0 0 0 0 0 0 0 0 0 0 0 0 0 0 0 0 0 0 0 0 0 0 0
10 0 1 2 0 0 0 0 0 0 0 0 0 0 0 0 0 0 0 0 0 0 0 0 0 0 0 0 0 0 0 0 0 0 0 0 0 0 0 0 0 0 0 0 0 0 0 0 0 0 0 0 0 0
22 31 32 4 0 0 0 0 0 0 0 0 0 0 0 0 0 0 0 0 0 0 0 0 0 0 0 0 0 0 0 0 0 0 0 0 0 0 0 0 0 0 0 0 0 0 0 0 0 0 0 0 0 0
22 0 8 0 0 0 0 0 0 0 0 0 0 0 0 0 0 0 0 0 0 0 0 0 0 0 0 0 0 0 0 0 0 0 0 0 0 0 0 0 0 0 0 0 0 0 0 0 0 0 0 0 0 0
0 1 0 0 0 0 0 0 0 0 0 0 0 0 0 0 0 0 0 0 0 0 0 0 0 0 0 0 0 0 0 0 0 0 0 0 0 0 0 0 0 0 0 0 0 0 0 0 0 0 0 0 0 0
3 0 0 0 0 0 0 0 0 0 0 0 0 0 0 0 0 0 0 0 0 0 0 0 0 0 0 0 0 0 0 0 0 0 0 0 0 0 0 0 0 0 0 0 0 0 0 0 0 0 0 0 0 0
2 0 0 0 0 0 0 0 0 0 0 0 0 0 0 0 0 0 0 0 0 0 0 0 0 0 0 0 0 0 0 0 0 0 0 0 0 0 0 0 0 0 0 0 0 0 0 0 0 0 0 0 0 0
0 0 0 0 0 0 0 0 0 0 0 0 0 0 0 0 0 0 0 0 0 0 0 0 0 0 0 0 0 0 0 0 0 0 0 0 0 0 0 0 0 0 0 0 0 0 0 0 0 0 0 0 0 0
0 0 0 0 0 0 0 0 0 0 0 0 0 0 0 0 0 0 0 0 0 0 0 0 0 0 0 0 0 0 0 0 0 0 0 0 0 0 0 0 0 0 0 0 0 0 0 0 0 0 0 0 1 0
0 0 0 0 0 0 0 0 0 0 0 0 0 0 0 0 0 0 0 0 0 0 0 0 0 0 0 0 0 0 0 0 0 0 0 0 0 0 0 0 0 0 0 0 0 0 0 0 0 0 0 0 0 0
0 0 0 0 0 0 0 0 0 0 0 0 0 0 0 0 0 0 0 0 0 0 0 0 0 0 0 0 0 0 0 0 0 0 0 0 0 0 0 0 0 0 0 0 0 0 0 0 0 0 0 0 0 0
0 0 0 0 0 0 0 0 0 0 0 0 0 0 0 0 0 0 0 0 0 0 0 0 0 0 0 0 0 0 0 0 0 0 0 0 0 0 0 0 0 0 0 0 2 0 0 0 0 0 0 0 0 0
0 0 0 0 0 0 0 0 0 0 0 0 0 0 0 0 0 0 0 0 0 0 0 0 0 0 0 0 0 0 0 0 0 0 0 0 0 0 0 0 0 0 0 0 0 0 0 0 0 0 0 0 0 0
0 0 0 0 0 0 0 0 0 0 0 0 0 0 0 0 0 0 0 0 0 0 0 0 0 0 0 0 0 0 0 0 0 0 0 0 0 0 0 0 0 0 0 0 0 0 0 0 0 0 0 0 0 0
0 0 0 0 0 0 0 0 0 0 0 0 0 0 0 0 0 0 0 0 0 0 0 0 0 0 0 0 0 0 0 0 0 0 0 0 0 0 0 0 0 0 0 0 0 0 0 0 0 0 0 0 0 0
0 0 0 0 0 0 0 0 0 0 0 0 0 0 0 0 0 0 0 0 0 0 0 0 0 0 0 0 0 0 0 0 0 1 2 1 2 0 0 0 0 0 0 0 0 0 0 0 0 0 0 0 0 0
CIN
0 0 0 0 0 0 0 0 0 0 0 0 0 0 0 0 -3 0 0 0 0 0 0 0 -1 0 0 0 0 0 0 0 0 0 0 0 0 0 0 0 0 0 0 0 -1 0 0 0 0 0 0 0 0 0
0 0 0 0 0 0 0 0 0 0 0 0 0 0 0 0 0 0 0 0 0 -2 0 0 0 0 0 0 0 0 0 0 0 0 0 0 0 0 0 0 0 0 0 0 0 0 0 0 0 0 0 0 0 0
0 0 0 0 0 0 0 0 0 0 0 0 0 0 0 0 0 0 0 0 0 0 0 0 0 0 0 0 -1 0 0 0 0 0 0 0 0 0 0 0 0 0 0 0 0 0 0 0 0 0 0 0 0 0
0 0 0 0 0 0 0 0 0 0 0 0 0 0 0 0 0 0 0 0 0 0 0 0 0 0 0 0 0 0 0 0 0 0 0 0 0 0 0 0 0 0 0 0 0 0 0 0 0 0 0 0 0 0
0 0 0 0 0 0 0 0 0 0 0 0 0 0 0 -1 0 0 0 0 0 0 0 0 0 0 0 0 0 0 0 0 0 0 0 0 0 0 0 0 0 0 0 0 0 0 0 0 0 0 0 0 0 0
0 0 0 0 0 0 0 0 0 0 0 0 0 0 0 0 0 0 0 0 0 0 0 0 0 0 0 0 0 0 0 0 0 0 0 0 0 0 0 0 0 0 0 0 0 0 0 0 0 0 0 0 0 0
0 0 0 0 0 0 0 0 0 0 0 0 0 0 0 0 0 0 0 0 0 0 0 0 0 0 0 0 0 0 0 0 0 0 0 0 0 0 0 0 0 0 0 0 0 0 0 0 0 0 0 0 0 0
0 0 0 0 0 0 0 0 0 0 0 0 0 0 -1 0 0 0 0 0 0 0 0 0 0 0 0 0 0 0 0 0 0 0 0 0 0 0 0 0 0 0 0 0 0 0 0 0 0 0 0 0 0 0
0 0 0 0 0 0 0 0 0 0 0 0 0 0 0 0 0 0 0 0 0 0 0 0 0 0 0 0 0 0 0 0 0 0 0 0 0 0 0 0 0 0 0 0 0 0 0 0 0 0 0 0 0 0
0 0 0 0 0 0 0 0 0 0 0 0 0 0 0 0 0 0 0 0 0 0 0 0 0 0 0 0 0 0 0 0 0 0 0 0 0 0 0 0 0 0 0 0 0 0 0 0 0 0 0 0 0 0
0 0 0 0 0 0 0 0 0 -1 0 0 0 0 0 0 0 0 0 0 0 0 0 0 0 0 0 0 0 0 0 0 0 0 0 0 0 0 0 0 0 0 0 0 0 0 0 0 0 0 0 0 0 0
0 0 0 0 0 0 0 0 -1 0 0 0 0 0 0 0 0 0 0 0 0 0 0 0 0 0 0 0 0 0 0 0 0 0 0 0 0 0 0 0 0 0 0 0 0 0 0 0 0 0 0 0 0 0
0 0 0 0 0 0 0 0 -3 0 0 0 0 0 0 0 0 0 0 0 0 0 0 0 0 0 0 0 0 0 0 0 0 0 0 0 0 0 0 0 0 0 0 0 0 0 0 0 0 0 0 0 0 0
0 0 0 0 0 0 0 0 0 0 0 0 0 0 0 0 0 0 0 0 0 0 0 0 0 0 0 0 0 0 0 0 0 0 0 0 0 0 0 0 0 0 0 0 0 0 0 0 0 0 0 0 0 0
0 0 0 0 0 0 0 0 0 0 0 0 0 0 0 0 0 0 0 0 0 0 0 0 0 0 0 0 0 0 0 0 0 0 0 0 0 0 0 0 0 0 0 0 0 0 0 0 0 0 0 0 0 0
0 0 0 0 0 0 0 0 0 0 0 0 0 0 0 0 0 0 0 0 0 0 0 0 0 0 0 0 0 0 0 0 0 0 0 0 0 0 0 0 0 0 0 0 0 0 0 0 0 0 0 0 0 0
-39 0 0 -8 -7 -7 0 0 0 0 0 0 0 0 0 0 0 0 0 0 0 0 0 0 0 0 0 0 0 0 0 0 0 0 0 0 0 0 0 0 0 0 0 0 0 0 0 0 0 0 0 0 0 0
-1 0 -12 -8 0 0 0 0 0 0 0 0 0 0 0 0 0 0 0 0 0 0 0 0 0 0 0 0 0 0 0 0 0 0 0 0 0 0 0 0 0 0 0 0 0 0 0 0 0 0 0 0 0 0
-3 0 -6 0 0 0 0 0 0 0 0 0 0 0 0 0 0 0 0 0 0 0 0 0 0 0 0 0 0 0 0 0 0 0 0 0 0 0 0 0 0 0 0 0 0 0 0 0 0 0 0 0 0 0
0 0 0 0 0 0 0 0 0 0 0 0 0 0 0 0 0 0 0 0 0 0 0 0 0 0 0 0 0 0 0 0 0 0 0 0 0 0 0 0 0 0 0 0 0 0 0 0 0 0 0 0 0 0
-1 0 -2 0 0 0 0 0 0 0 0 0 0 0 0 0 0 0 0 0 0 0 0 0 0 0 0 0 0 0 0 0 0 0 0 0 0 0 0 0 0 0 0 0 0 0 0 0 0 0 0 0 0 0
0 0 0 0 0 0 0 0 0 0 0 0 0 0 0 0 0 0 0 0 0 0 0 0 0 0 0 0 0 0 0 0 0 0 0 0 0 0 0 0 0 0 0 0 0 0 0 0 0 0 0 0 0 0
0 0 0 0 0 0 0 0 0 0 0 0 0 0 0 0 0 0 0 0 0 0 0 0 0 0 0 0 0 0 0 0 0 0 0 0 0 0 0 0 0 0 0 0 0 0 0 0 0 0 0 0 0 0
0 0 0 0 0 0 0 0 0 0 0 0 0 0 0 0 0 0 0 0 0 0 0 0 0 0 0 0 0 0 0 0 0 0 0 0 0 0 0 0 0 0 0 0 0 0 0 0 0 0 0 0 0 0
0 0 0 0 0 0 0 0 0 0 0 0 0 0 0 0 0 0 0 0 0 0 0 0 0 0 0 0 0 0 0 0 0 0 0 0 0 0 0 0 0 0 0 0 0 0 0 0 0 0 0 0 0 0
0 0 0 0 0 0 0 0 0 0 0 0 0 0 0 0 0 0 0 0 0 0 0 0 0 0 0 0 0 0 0 0 0 0 0 0 0 0 0 0 0 0 0 0 0 0 0 0 0 0 0 0 0 0
0 0 0 0 0 0 0 0 0 0 0 0 0 0 0 0 0 0 0 0 0 0 0 0 0 0 0 0 0 0 0 0 0 0 0 0 0 0 0 0 0 0 0 0 0 0 0 0 0 0 0 0 0 0
0 0 0 0 0 0 0 0 0 0 0 0 0 0 0 0 0 0 0 0 0 0 0 0 0 0 0 0 0 0 0 0 0 0 0 0 0 0 0 0 0 0 0 0 0 0 0 0 0 0 0 0 0 0
0 0 0 0 0 0 0 0 0 0 0 0 0 0 0 0 0 0 0 0 0 0 0 0 0 0 0 0 0 0 0 0 0 0 0 0 0 0 0 0 0 0 0 0 0 0 0 0 0 0 0 0 0 0
0 0 0 0 0 0 0 0 0 0 0 0 0 0 0 0 0 0 0 0 0 0 0 0 0 0 0 0 0 0 0 0 0 0 0 0 0 0 0 0 0 0 0 0 0 0 0 0 0 0 0 0 0 0
0 0 0 0 0 0 0 0 0 0 0 0 0 0 0 0 0 0 0 0 0 0 0 0 0 0 0 0 0 0 0 0 0 0 0 0 0 0 0 0 0 0 0 0 0 0 0 0 0 0 0 0 0 0
0 0 0 0 0 0 0 0 0 0 0 0 0 0 0 0 0 0 0 0 0 0 0 0 0 0 0 0 0 0 0 0 0 0 0 0 0 0 0 0 0 0 0 0 0 0 0 0 0 0 0 0 0 0
0 0 0 0 0 0 0 0 0 0 0 0 0 0 0 0 0 0 0 0 0 0 0 0 0 0 0 0 0 0 0 0 0 0 0 0 0 0 0 0 0 0 0 0 0 0 0 0 0 0 0 0 0 0
Wind_Speed
14 15 17 18 19 20 21 23 24 25 26 26 25 20 15 14 6 4 1 3 1 2 4 2 1 1 2 4 2 7 7 6 5 8 5 4 3 4 5 5 8 5 5 1 4 5 6 23 9 10 11 13 18 18
13 14 15 18 19 19 20 21 23 24 25 26 25 20 15 13 11 4 2 2 1 3 4 2 4 2 3 4 4 2 7 2 3 4 3 2 3 3 5 2 8 5 3 4 2 3 1 13 4 9 11 14 17 18
13 14 15 15 18 19 20 20 21 24 24 25 25 19 14 12 7 4 2 2 3 3 4 3 1 6 6 2 3 4 4 4 3 3 2 2 2 3 3 3 3 8 9 1 9 4 19 20 5 18 18 19 22 21
13 14 16 15 16 18 19 20 21 22 23 24 24 18 12 9 5 4 3 2 3 2 3 6 3 2 2 5 2 5 4 2 2 1 3 2 1 5 3 3 4 3 10 10 7 6 20 2 19 21 25 24 22 22
15 13 14 16 15 18 19 19 20 21 23 24 24 17 9 4 4 4 2 1 2 4 3 4 4 2 5 9 8 2 5 3 2 1 1 2 2 3 2 4 2 2 3 4 6 15 12 18 21 27 24 23 23 20
16 15 13 16 16 17 18 20 20 21 22 23 22 15 8 2 4 1 3 1 1 2 2 4 2 5 5 7 8 7 4 1 1 2 2 3 2 2 3 1 5 1 4 7 8 16 19 23 24 23 19 23 22 17
17 16 14 15 15 17 17 18 20 21 22 23 18 9 5 7 4 3 4 4 9 2 4 5 6 4 5 4 4 4 5 2 2 2 3 3 3 5 3 2 5 10 10 12 12 10 9 6 15 23 20 20 18 11
17 18 15 16 15 17 17 18 18 21 22 22 14 2 4 7 6 2 3 6 3 5 4 3 5 5 7 4 5 4 4 3 4 3 3 2 3 3 2 5 5 6 11 12 7 11 14 18 17 16 16 14 14 9
15 20 18 16 16 16 16 17 17 20 21 18 9 5 4 4 2 3 10 4 4 5 4 3 3 5 6 2 2 4 2 4 2 3 2 3 1 2 4 6 8 8 7 13 16 14 11 12 15 15 15 13 10 8
15 18 19 17 16 15 16 16 16 17 19 7 4 4 4 2 9 5 6 5 6 5 4 3 1 3 3 3 3 4 2 2 2 2 2 3 2 3 4 5 6 8 9 10 13 14 17 16 13 14 14 12 9 6
17 18 18 17 16 16 15 14 14 11 7 4 4 1 3 8 3 4 3 4 3 5 1 1 2 1 2 2 2 0 3 2 3 3 2 1 3 5 5 5 5 7 7 8 7 11 11 11 12 12 11 10 8 7
18 18 18 18 17 16 15 13 7 3 2 2 2 1 2 4 4 4 2 3 2 3 2 3 3 3 2 1 0 4 1 3 3 1 5 3 5 5 4 5 6 5 5 7 6 8 10 11 10 10 9 8 7 6
20 18 18 19 19 17 16 13 6 7 7 2 4 3 3 2 1 6 4 3 3 4 4 2 1 1 3 3 2 2 4 3 2 4 4 6 3 3 5 4 6 5 4 4 7 7 7 9 11 9 8 8 6 8
21 20 18 19 20 18 17 14 12 9 4 0 2 6 4 3 6 5 4 3 2 4 5 2 2 2 1 3 1 3 3 3 4 2 7 4 5 5 4 4 2 7 6 5 6 7 7 7 9 9 9 8 7 9
23 22 17 20 20 19 18 11 15 4 3 3 3 7 8 3 0 1 1 4 2 5 4 3 3 2 2 3 1 2 5 4 7 7 4 4 5 4 3 3 5 5 5 4 4 4 6 7 7 8 9 8 8 9
23 21 14 22 22 21 16 19 5 3 2 3 4 3 2 0 3 3 4 3 4 5 3 4 3 4 3 3 2 7 7 9 6 5 3 3 4 4 4 3 5 5 4 4 4 3 4 6 6 6 7 9 9 8
23 6 11 15 21 23 25 6 4 5 6 6 7 3 2 0 3 3 4 4 7 4 3 3 4 8 3 2 4 6 9 5 4 3 3 5 5 4 4 4 4 3 4 4 3 3 3 4 4 5 7 7 7 8
14 7 16 20 10 8 2 1 5 5 9 6 4 4 3 1 3 2 3 6 6 4 5 5 6 5 7 7 6 6 5 1 1 2 4 3 3 4 4 4 3 3 4 3 2 2 3 3 4 3 4 4 4 5
14 8 18 21 12 6 6 3 2 6 9 3 2 2 2 2 1 3 5 4 3 2 6 3 4 6 7 5 5 3 3 4 5 4 3 3 3 5 4 2 3 2 3 2 2 0 1 2 2 2 2 3 2 2
18 18 18 23 14 4 4 2 1 2 4 3 2 3 2 2 3 4 5 4 3 3 3 6 9 6 5 3 4 3 3 5 5 2 2 2 3 4 5 3 2 2 2 2 2 3 1 0 1 2 0 1 2 3
10 1 10 6 2 3 2 4 2 1 2 2 2 3 3 1 2 4 4 4 2 6 6 8 5 2 1 1 1 2 4 6 5 5 4 3 3 3 2 2 2 1 2 2 2 1 2 1 0 1 2 2 2 2
1 6 3 3 4 3 4 1 2 3 2 1 3 2 3 3 4 4 5 3 6 7 7 3 3 4 4 4 4 2 4 5 4 3 6 7 2 2 1 2 2 1 2 2 2 2 2 0 1 1 1 1 2 1
7 3 3 2 3 2 2 0 3 3 4 4 2 2 3 3 2 2 4 5 6 4 2 2 2 2 3 4 5 4 3 6 4 3 2 3 2 2 2 1 2 2 1 1 1 2 2 1 1 3 1 2 1 2
3 3 3 3 0 4 1 1 1 2 2 3 4 4 4 3 3 2 6 4 3 2 2 3 4 4 4 5 3 3 4 3 3 2 2 4 2 2 3 2 2 2 2 1 2 2 2 1 3 2 1 1 1 1
2 4 4 3 2 4 5 5 4 4 4 4 4 3 3 3 3 4 5 4 1 1 2 4 4 1 3 3 2 3 2 3 5 4 3 3 2 2 2 1 1 3 1 2 3 3 2 2 2 2 1 0 1 1
4 1 3 4 2 4 5 5 5 5 2 4 3 2 2 2 3 7 3 2 2 1 3 5 5 4 2 2 4 4 4 3 4 2 2 5 4 4 4 3 1 2 2 2 3 3 3 2 2 2 1 3 4 2
4 3 2 2 3 3 2 2 2 3 4 5 4 5 3 4 6 3 2 1 2 2 2 2 4 3 3 3 2 3 4 5 2 2 1 3 3 3 4 4 4 2 3 4 3 3 4 3 2 2 2 2 2 3
0 4 1 3 1 1 3 4 5 5 2 3 4 5 4 4 2 2 2 2 2 2 4 4 4 3 3 3 4 6 5 3 3 3 2 2 0 2 3 2 2 3 4 4 3 3 3 3 3 4 4 4 3 2
3 3 2 2 1 1 4 3 3 2 3 2 2 2 1 2 2 2 2 2 0 1 3 4 3 3 5 5 4 2 4 5 5 3 2 3 3 4 3 3 2 1 1 1 5 6 7 6 5 4 4 2 1 1
4 4 3 3 3 1 2 2 3 3 2 2 3 1 1 1 1 1 1 1 1 2 2 2 3 1 3 4 2 1 1 2 3 5 4 4 5 3 2 3 3 2 2 2 1 2 6 4 4 3 3 2 1 1
4 2 2 3 2 2 2 3 3 2 1 2 2 2 1 1 1 2 2 2 2 2 3 3 1 1 4 3 3 3 2 3 5 5 3 3 2 2 3 3 2 2 2 2 2 2 1 1 1 1 2 4 6 3
3 4 3 2 2 2 2 2 2 2 3 2 3 3 2 1 1 1 2 1 1 1 2 3 2 3 4 3 2 2 1 2 3 5 8 3 3 4 3 3 3 3 3 3 3 3 4 4 3 4 5 7 6 5
2 2 1 0 2 2 3 3 2 1 2 2 3 3 2 2 2 1 1 1 2 2 3 3 4 2 3 5 4 3 3 3 4 7 9 9 10 9 6 4 4 5 6 5 4 4 7 7 6 6 7 7 7 6
Wind_Direction
335 338 337 339 345 348 350 351 357 358 358 358 0 359 357 352 24 99 231 4 31 279 285 178 275 297 341 66 68 286 6 354 342 28 33 315 332 337 343 51 340 31 309 322 212 216 239 356 11 43 332 314 323 329
324 327 333 335 339 344 347 349 351 355 356 355 357 356 354 350 4 107 44 355 302 240 245 318 269 276 95 168 145 301 197 248 284 17 7 346 337 321 324 343 6 26 34 285 25 325 24 335 65 8 339 323 324 317
314 318 323 332 334 339 342 345 348 350 353 353 353 353 351 350 32 103 129 329 49 43 322 6 104 63 78 29 174 115 293 230 340 91 280 246 310 342 9 35 332 17 16 33 332 56 335 310 340 343 339 330 316 313
302 311 317 325 331 331 336 340 343 345 348 349 350 349 349 5 36 100 84 323 88 83 110 278 340 65 77 5 247 214 214 297 214 253 239 229 344 25 55 91 77 321 315 335 271 334 328 339 348 329 324 321 315 319
293 303 311 314 325 325 329 334 339 341 344 348 348 344 347 47 84 84 109 72 130 116 226 274 300 14 347 349 339 21 188 231 230 260 10 59 48 33 98 89 69 334 334 335 271 324 284 282 303 309 311 316 313 311
287 294 303 307 317 318 324 328 335 337 341 346 349 339 344 137 111 6 1 340 360 146 64 333 280 356 317 336 9 1 351 248 270 92 88 50 357 107 85 81 216 101 236 264 284 302 289 284 289 292 307 305 303 301
284 288 297 301 309 310 317 323 331 335 338 343 347 342 26 89 84 108 178 276 341 75 86 330 336 339 319 342 3 343 338 345 81 89 59 103 5 63 82 107 273 313 304 296 290 305 290 302 305 304 299 300 297 297
283 284 289 293 300 303 310 316 329 331 334 341 338 304 88 83 91 44 337 11 72 90 68 69 284 11 5 354 340 355 348 343 8 127 47 69 11 64 69 244 283 290 306 297 299 300 279 288 297 304 307 313 315 317
274 283 283 286 292 297 303 309 323 326 331 341 336 91 46 38 34 242 325 58 45 105 121 80 100 287 356 353 322 325 36 5 328 66 68 89 354 45 256 307 311 314 307 294 305 300 294 306 311 315 317 321 315 313
261 271 279 281 284 288 295 302 315 327 331 357 40 49 337 267 300 340 12 18 15 343 33 96 114 301 29 347 316 330 359 314 28 77 81 80 222 203 213 255 274 291 295 308 319 326 327 325 325 319 315 314 312 310
263 264 268 273 278 282 286 293 305 343 9 23 16 260 249 319 55 31 22 66 325 10 32 136 137 233 350 57 292 328 295 303 41 288 110 301 263 235 248 276 275 282 288 290 279 290 299 301 309 311 315 318 322 342
258 261 264 265 269 273 276 280 293 84 185 240 255 359 347 34 34 72 289 320 177 234 168 155 210 184 295 350 6 321 302 16 270 9 64 285 252 239 274 281 295 294 288 303 300 304 311 318 317 313 316 323 333 6
259 257 260 263 264 264 265 265 243 131 95 49 43 15 40 301 48 169 227 264 256 172 177 166 310 142 8 45 52 27 42 237 331 37 243 231 246 272 271 281 297 301 315 318 324 319 324 333 332 334 334 340 358 43
260 257 255 256 258 257 255 248 149 109 79 31 114 282 184 226 246 190 186 166 125 112 138 116 81 104 217 45 150 76 246 54 19 348 241 242 223 240 269 267 309 310 322 316 319 328 330 345 343 342 346 347 24 49
258 256 253 257 254 249 242 205 144 75 127 216 105 241 222 233 135 89 99 126 100 117 119 95 53 85 0 71 29 71 13 265 205 229 230 217 212 208 255 278 289 294 305 313 309 329 335 344 357 354 358 358 18 48
258 264 247 246 247 242 213 127 87 110 97 163 230 258 186 323 207 188 180 147 150 130 108 67 109 59 269 158 103 216 135 224 236 214 213 167 199 209 223 255 279 268 273 293 318 325 341 352 357 353 8 15 19 34
254 222 210 223 229 228 143 113 128 189 188 201 249 248 190 244 212 164 147 144 141 152 157 135 161 214 102 42 248 198 211 213 196 197 187 188 192 213 216 250 281 282 294 304 320 344 336 347 0 14 28 14 23 34
245 226 220 223 128 108 56 131 144 164 226 217 213 202 192 122 133 128 109 145 139 155 149 210 125 181 203 201 230 227 215 215 239 169 167 189 206 219 214 229 271 259 273 290 293 315 349 9 21 19 3 8 33 45
252 234 220 174 155 133 154 204 188 210 217 173 175 163 115 104 68 74 118 122 79 99 118 143 199 212 220 209 220 221 196 183 177 201 208 214 214 219 226 245 265 253 264 255 265 254 64 9 10 15 11 9 25 25
276 272 254 186 140 125 137 174 24 162 209 229 100 146 122 110 107 109 128 130 133 155 186 212 220 208 193 210 193 181 170 148 128 96 290 261 211 184 220 202 210 232 260 248 243 194 177 51 26 6 246 63 52 25
266 96 249 168 79 66 95 135 163 210 125 187 145 135 107 137 152 160 151 153 177 212 233 228 223 148 110 78 183 128 135 153 172 161 168 152 213 179 207 221 201 225 198 229 199 286 150 126 30 23 36 54 47 25
60 69 91 59 97 93 90 21 116 116 112 98 153 153 145 190 188 184 123 189 230 220 211 182 188 174 168 186 179 177 142 122 108 110 116 128 113 135 198 208 122 242 229 216 173 163 154 188 159 71 53 23 42 37
92 68 66 110 99 178 122 356 153 165 178 183 148 206 218 198 131 143 230 221 250 224 208 171 133 97 130 110 110 91 128 138 138 140 144 144 177 154 144 169 145 156 208 271 134 135 155 148 112 109 37 42 26 38
97 147 160 184 11 135 82 145 74 120 112 195 184 218 189 140 157 200 255 246 227 116 162 150 135 100 84 121 154 163 163 122 115 106 135 134 155 247 182 179 187 215 199 202 151 142 123 93 85 79 67 54 49 50
123 209 161 170 146 133 182 173 182 183 235 169 209 211 171 159 201 231 244 275 304 232 163 152 168 149 135 110 113 121 121 146 154 161 203 174 125 76 52 65 247 228 177 131 162 155 142 118 110 103 81 277 258 271
239 195 189 181 120 169 170 165 200 218 180 199 218 82 167 174 223 245 230 272 280 264 185 179 160 137 126 138 139 163 184 159 123 137 215 185 183 150 170 166 181 280 200 166 134 152 160 160 156 146 254 309 335 103
252 273 359 5 119 125 128 116 151 184 198 211 166 170 169 221 237 256 309 13 308 333 269 147 135 128 136 132 107 97 110 134 156 170 143 158 174 168 148 162 188 231 160 156 155 158 168 178 194 227 252 263 234 242
254 9 269 279 332 259 161 180 190 210 191 106 129 185 212 232 316 12 354 8 326 4 51 46 47 74 104 102 110 113 95 99 93 71 52 32 348 211 203 227 255 229 160 166 173 177 187 204 219 225 230 245 253 237
29 339 302 283 237 70 32 359 20 29 332 263 220 220 233 52 12 347 2 353 29 72 84 93 54 66 73 69 63 37 133 150 114 109 173 260 329 286 191 191 212 268 89 134 235 197 213 223 226 214 207 229 213 109
6 338 311 18 343 33 8 336 320 327 314 331 318 234 137 77 35 334 313 358 73 94 77 83 110 83 136 134 134 23 299 194 160 144 167 212 226 253 182 166 171 179 152 159 182 337 318 21 21 42 43 15 336 305
327 354 54 28 25 351 305 305 270 260 322 355 346 357 11 356 125 36 31 40 84 110 110 125 93 18 132 141 148 130 286 238 208 213 190 155 160 178 186 190 178 144 154 164 180 180 181 337 292 255 270 273 284 317
17 26 346 4 339 304 282 326 339 357 353 14 8 345 336 265 354 80 41 43 129 175 242 151 144 243 210 214 211 226 17 180 182 199 205 197 202 215 204 197 184 167 170 191 199 194 198 222 229 231 243 257 264 263
37 18 18 352 335 348 354 314 329 323 33 25 23 357 360 337 305 327 34 75 169 190 215 221 225 220 208 203 199 220 222 208 222 202 206 209 216 218 208 197 190 200 206 211 206 219 235 236 240 241 246 250 260 265